Temperature
2 3 3 3 3 3 3 3 3 4 4 4 4 4 4 4 4 4 4 4 4 4 4 4 4 4 4 4 4 4 4 4 4 4 3 3 3 3 3 3 3 3 3 3
2 3 3 3 3 3 3 4 3 4 3 4 4 4 3 3 3 3 3 3 4 4 4 4 4 4 4 4 4 4 3 3 3 3 3 3 3 3 3 3 3 3 3 3
1 2 3 2 3 3 3 2 3 3 3 3 2 2 2 3 3 3 3 3 3 4 3 4 3 3 3 3 3 3 3 3 3 2 2 2 2 2 2 2 2 2 2 2
1 1 2 2 3 3 2 2 2 2 2 2 2 2 2 3 3 3 3 3 3 3 3 3 3 3 3 3 3 3 2 2 2 2 2 2 2 2 2 2 2 2 2 2
0 1 2 2 2 2 2 2 1 2 1 1 2 2 2 3 3 3 3 3 3 3 3 3 3 3 3 2 2 2 2 2 2 2 2 1 1 1 1 1 1 1 1 1
-0 1 1 1 1 2 2 1 1 1 1 1 1 1 1 2 2 2 2 3 3 3 3 2 2 2 2 2 2 2 2 2 1 1 1 1 1 1 1 1 1 1 1 1
-1 -0 0 0 0 2 1 1 1 1 1 1 0 1 1 1 2 2 2 2 2 2 2 2 2 2 2 2 1 1 1 1 1 1 1 1 1 1 0 0 0 0 0 0
-1 -1 -0 -0 0 0 0 1 1 0 0 0 0 0 1 1 1 1 1 1 2 2 1 1 1 1 1 1 1 1 1 0 0 0 0 0 0 0 0 -0 -0 -0 -0 -0
-1 -1 -1 -0 -0 0 0 0 0 0 0 0 -0 -0 0 0 0 1 1 1 1 1 1 1 1 1 1 0 0 0 -0 -0 -0 -0 -0 -0 -0 -0 -0 -1 -1 -1 -1 -1
-2 -2 -1 -1 -1 -0 -0 -0 -0 -0 -0 -0 -1 -1 -1 -0 -0 -0 -0 -0 0 0 0 0 -0 -0 -0 -0 -0 -0 -0 -1 -1 -1 -1 -1 -1 -1 -1 -1 -1 -1 -1 -1
-2 -2 -2 -2 -1 -1 -1 -1 -1 -1 -1 -1 -1 -1 -1 -1 -1 -1 -1 -1 -1 -1 -1 -1 -1 -1 -1 -1 -1 -1 -1 -1 -1 -1 -1 -1 -1 -1 -1 -1 -2 -2 -2 -2
-3 -3 -3 -2 -2 -2 -2 -2 -2 -2 -2 -2 -2 -1 -1 -1 -1 -1 -1 -1 -1 -1 -1 -1 -1 -1 -1 -1 -1 -1 -1 -2 -2 -2 -2 -2 -2 -2 -2 -2 -2 -2 -2 -2
-3 -3 -3 -2 -2 -2 -2 -2 -2 -2 -2 -2 -2 -2 -2 -2 -2 -2 -2 -2 -2 -2 -2 -2 -2 -2 -2 -2 -2 -2 -2 -2 -2 -2 -2 -2 -2 -2 -2 -2 -2 -2 -2 -3
-3 -3 -3 -3 -3 -3 -3 -3 -3 -3 -3 -3 -3 -3 -3 -3 -3 -3 -3 -3 -3 -3 -3 -3 -3 -2 -2 -2 -2 -2 -2 -2 -3 -3 -3 -3 -3 -3 -3 -3 -3 -2 -3 -3
-4 -3 -4 -4 -4 -4 -3 -3 -3 -3 -3 -3 -3 -3 -3 -3 -4 -4 -3 -3 -3 -4 -3 -3 -3 -3 -3 -3 -3 -3 -3 -3 -3 -3 -3 -3 -3 -3 -3 -3 -3 -3 -3 -3
-4 -4 -4 -4 -4 -4 -4 -4 -4 -4 -4 -4 -4 -4 -4 -4 -4 -4 -4 -4 -4 -4 -4 -4 -4 -3 -3 -3 -3 -3 -3 -4 -4 -4 -4 -4 -4 -4 -4 -4 -4 -3 -3 -3
-5 -5 -5 -5 -5 -5 -5 -5 -5 -5 -5 -5 -5 -5 -5 -5 -5 -5 -4 -4 -4 -4 -4 -5 -4 -4 -4 -4 -4 -4 -4 -4 -4 -4 -4 -4 -4 -4 -4 -4 -4 -4 -4 -4
-5 -6 -6 -6 -6 -6 -6 -6 -6 -6 -6 -6 -6 -5 -5 -5 -5 -5 -5 -5 -5 -5 -5 -5 -5 -5 -5 -5 -5 -5 -5 -5 -5 -5 -5 -5 -5 -5 -5 -5 -4 -4 -4 -4
-6 -6 -6 -6 -6 -6 -6 -6 -6 -6 -6 -6 -6 -6 -6 -6 -6 -6 -6 -5 -5 -5 -5 -5 -5 -5 -5 -5 -5 -5 -5 -5 -5 -5 -5 -5 -5 -5 -5 -5 -5 -5 -5 -5
-6 -6 -6 -6 -6 -6 -6 -6 -6 -7 -6 -6 -6 -6 -6 -6 -6 -6 -6 -6 -6 -6 -6 -6 -6 -6 -6 -6 -6 -6 -6 -6 -6 -6 -6 -6 -6 -6 -5 -5 -5 -5 -5 -5
-7 -7 -7 -7 -7 -7 -7 -7 -7 -7 -7 -7 -7 -7 -7 -7 -7 -7 -6 -6 -6 -6 -6 -6 -6 -6 -6 -6 -6 -6 -6 -6 -6 -6 -6 -6 -6 -6 -6 -6 -6 -6 -6 -6
-7 -7 -7 -7 -7 -7 -7 -7 -7 -7 -7 -7 -7 -7 -7 -7 -7 -7 -7 -7 -7 -7 -7 -7 -7 -7 -7 -7 -7 -7 -7 -6 -6 -6 -6 -6 -6 -6 -6 -6 -6 -6 -6 -6
-8 -8 -8 -8 -8 -8 -7 -8 -8 -8 -8 -8 -8 -8 -8 -8 -8 -8 -7 -7 -7 -7 -7 -7 -7 -7 -7 -7 -7 -7 -7 -7 -7 -7 -7 -7 -7 -7 -6 -6 -6 -6 -6 -6
-8 -8 -8 -8 -8 -8 -8 -8 -8 -8 -8 -8 -8 -8 -8 -8 -8 -8 -8 -8 -8 -8 -8 -8 -8 -8 -8 -7 -7 -7 -7 -7 -7 -7 -7 -7 -7 -7 -7 -7 -7 -7 -7 -6
-9 -9 -9 -9 -9 -9 -9 -9 -9 -8 -8 -9 -9 -9 -9 -9 -8 -8 -8 -8 -8 -8 -8 -8 -8 -8 -8 -8 -8 -8 -8 -7 -7 -7 -7 -7 -7 -7 -7 -7 -7 -7 -7 -7
-9 -9 -9 -10 -10 -10 -9 -9 -9 -9 -9 -9 -9 -9 -9 -9 -9 -9 -9 -9 -8 -8 -8 -8 -8 -8 -8 -8 -8 -8 -8 -8 -8 -8 -8 -8 -7 -7 -7 -7 -7 -7 -7 -7
-9 -10 -10 -10 -10 -10 -10 -10 -10 -10 -10 -10 -10 -9 -9 -9 -9 -9 -9 -9 -9 -9 -9 -9 -9 -8 -8 -8 -8 -8 -8 -8 -8 -8 -8 -8 -8 -8 -8 -8 -7 -7 -7 -7
Wind_Speed
9 8 6 7 9 8 9 9 8 7 7 6 4 3 2 2 1 2 1 1 1 1 1 0 0 1 1 1 1 3 4 4 3 3 3 3 3 3 3 3 3 3 2 2
7 5 6 8 8 8 10 9 8 6 7 3 1 1 0 1 2 1 1 2 1 1 1 1 1 1 1 2 2 3 4 3 3 4 4 3 3 3 3 2 2 2 2 2
5 4 3 6 6 6 4 3 4 7 6 1 0 1 3 3 2 2 2 2 2 2 2 2 2 2 2 2 2 3 3 3 4 4 3 3 3 3 2 2 2 2 2 2
3 2 5 5 1 3 4 0 2 2 2 1 2 2 1 1 1 2 2 2 2 2 2 1 1 1 2 2 3 3 3 3 4 4 3 3 3 3 2 2 2 2 2 2
2 4 5 5 3 1 2 2 2 2 1 1 0 3 3 2 1 1 2 2 2 2 1 1 1 1 3 3 2 2 2 3 3 4 3 3 2 2 2 2 1 2 2 2
2 2 3 4 7 6 2 1 4 2 1 1 2 1 4 3 2 2 2 2 1 1 2 1 1 2 3 3 2 2 2 2 2 3 3 3 3 2 1 2 2 2 2 2
2 3 3 5 7 4 2 3 4 2 2 1 0 2 2 2 2 2 3 3 2 2 2 1 1 3 3 2 1 1 1 2 2 2 2 2 2 1 1 1 1 1 1 1
1 2 4 5 4 1 2 3 3 3 2 2 1 2 2 2 3 3 4 3 3 2 2 2 2 3 2 0 0 1 2 2 2 1 1 1 2 1 1 2 2 1 1 1
3 3 3 2 1 2 2 3 3 2 3 2 2 2 3 3 3 3 3 3 3 2 2 2 2 2 2 0 0 1 1 1 1 1 1 1 2 2 1 1 2 2 2 2
2 3 4 4 4 5 4 3 3 3 2 2 2 2 3 3 3 3 3 3 3 2 2 2 2 2 1 0 1 1 1 1 1 1 1 1 1 2 2 2 3 3 3 3
3 4 4 5 6 5 5 5 5 5 4 3 2 2 2 2 2 2 3 3 2 2 1 1 2 2 2 1 1 1 0 0 1 1 1 1 1 2 3 3 4 4 4 4
3 4 3 4 6 5 5 5 5 5 5 5 3 1 2 2 2 2 2 3 3 2 2 1 1 2 2 1 0 1 0 1 1 1 1 1 1 2 4 4 6 6 6 5
2 4 3 4 5 5 4 5 5 4 4 4 4 3 3 3 2 2 2 2 2 2 2 1 1 2 2 2 1 1 2 2 1 1 1 2 2 2 3 4 4 5 6 6
3 3 4 5 5 6 6 5 5 5 4 4 4 4 3 3 3 3 3 3 2 2 2 2 2 3 3 2 1 1 1 2 2 2 2 2 2 3 3 3 3 3 4 5
5 4 2 3 5 7 6 6 6 6 6 6 5 4 4 4 3 3 3 3 3 2 3 2 3 4 4 2 1 1 1 2 2 2 2 2 2 2 2 3 3 3 3 3
6 5 4 4 5 6 6 6 5 6 6 5 5 5 4 3 3 3 3 3 3 3 4 3 4 4 3 2 2 1 2 3 2 2 2 2 2 2 2 2 3 3 3 3
5 6 5 5 6 6 6 5 4 5 5 4 4 4 4 4 4 4 5 4 3 3 3 3 4 4 3 2 2 2 2 2 3 2 2 2 2 3 3 3 3 3 3 4
3 4 4 4 4 5 6 5 5 5 4 4 4 4 4 4 4 5 5 4 4 4 4 4 4 4 3 3 2 2 2 2 2 2 2 2 3 3 3 3 3 4 3 4
5 5 5 5 4 4 4 5 5 5 4 4 4 4 4 4 4 4 4 4 4 5 5 5 6 4 4 4 4 2 2 2 3 3 2 4 3 2 3 3 4 4 3 3
5 6 6 6 5 4 5 5 5 4 4 4 3 4 4 5 4 4 4 3 3 4 5 5 4 4 4 4 4 2 2 3 3 3 3 2 3 3 3 3 3 3 3 3
7 7 6 6 6 6 5 5 4 5 5 4 3 4 4 5 4 3 3 4 5 4 5 6 4 4 4 4 5 2 2 2 3 3 3 3 3 3 3 3 3 3 3 3
6 6 6 6 6 6 6 5 4 4 5 4 4 4 4 4 4 4 3 3 5 7 5 4 4 5 6 6 3 2 2 3 3 3 3 3 3 4 4 4 4 4 3 3
5 5 6 6 6 6 6 5 4 4 4 4 4 4 4 4 3 3 5 4 4 7 6 4 6 8 8 4 2 2 3 3 3 3 3 4 4 4 4 4 4 4 3 3
5 6 6 5 5 5 5 5 5 4 4 4 4 4 4 4 4 3 3 6 8 8 5 6 9 8 7 3 2 3 3 3 3 3 4 3 3 3 4 4 4 3 4 4
5 5 5 5 5 5 5 5 5 5 4 4 4 4 3 3 3 4 4 5 7 7 5 6 8 8 5 3 3 3 3 4 4 4 3 3 3 3 3 3 4 4 4 4
5 5 5 5 5 4 4 4 4 4 4 5 5 4 4 3 3 4 3 4 5 7 5 4 4 5 4 4 4 4 4 4 5 4 4 4 4 4 4 4 4 4 4 4
5 5 4 5 5 4 4 4 5 5 5 5 6 5 5 4 4 4 4 4 4 4 4 4 4 4 4 4 4 4 4 4 4 4 4 4 3 4 4 4 4 4 4 4
Wind_Direction
256 257 245 252 251 232 222 220 217 229 230 244 228 223 214 196 163 131 125 132 158 178 169 148 140 153 149 150 149 151 147 149 157 145 130 125 127 136 141 147 154 159 161 168
276 263 250 269 262 235 233 232 233 242 261 267 234 147 232 220 177 188 223 233 221 204 199 198 202 205 178 165 164 148 147 155 148 133 126 126 131 131 133 139 150 153 170 182
267 281 305 267 256 220 209 209 202 229 246 263 8 228 230 228 207 234 259 267 245 222 220 215 211 203 192 182 152 139 143 146 142 137 138 145 144 136 144 154 154 164 184 191
259 293 239 257 307 182 161 161 199 208 243 206 220 254 276 212 195 256 274 274 273 259 240 228 201 181 156 135 139 139 139 144 144 141 142 145 147 156 162 163 170 182 193 207
209 238 268 300 336 345 170 292 325 219 278 327 12 43 360 341 328 271 275 285 270 254 236 188 165 145 125 120 128 139 148 151 154 150 151 153 162 172 174 172 182 199 205 207
208 222 243 300 322 317 126 295 346 360 333 342 55 58 290 317 344 355 357 346 345 22 74 87 110 123 122 135 142 168 177 167 156 152 159 172 185 187 185 183 195 199 211 211
230 233 264 313 327 15 108 276 323 344 344 5 313 243 289 341 9 24 19 13 29 59 78 89 97 116 121 125 169 195 155 145 142 145 158 169 166 171 173 179 179 195 213 236
203 225 270 332 11 74 272 330 350 5 14 25 5 5 20 24 22 26 27 25 35 63 54 43 79 107 107 134 272 111 129 134 137 136 142 149 146 158 169 171 180 202 220 267
201 222 300 336 346 327 4 3 357 13 3 29 28 14 18 17 14 14 24 25 30 72 64 36 41 88 121 249 62 100 123 143 151 143 137 147 159 177 189 189 201 224 223 244
294 306 336 354 8 9 8 1 360 5 5 26 29 14 9 8 7 12 19 22 25 53 65 31 18 27 24 288 131 121 133 164 169 154 141 148 187 199 201 206 216 228 234 245
285 312 349 0 356 354 5 13 17 15 14 14 33 13 8 359 352 360 7 11 25 35 43 10 7 1 349 351 96 101 120 206 169 170 188 217 242 231 230 231 227 227 228 229
288 309 307 311 327 349 10 7 8 14 4 356 0 5 1 352 348 353 2 14 21 15 5 347 351 346 341 344 125 156 234 270 245 232 242 249 269 298 286 267 266 259 249 246
305 319 326 323 347 1 4 357 358 1 354 351 357 4 2 354 355 5 10 11 2 346 338 329 338 330 325 324 281 207 229 244 249 231 231 247 260 265 289 304 288 273 263 259
354 4 3 357 346 352 358 354 2 6 3 5 3 5 9 12 9 10 358 343 343 350 348 348 344 326 318 313 287 246 249 253 252 237 234 241 248 256 258 264 284 293 278 264
356 3 344 345 357 359 3 11 15 7 3 2 6 12 13 10 358 347 345 348 353 355 345 340 334 324 326 320 299 268 261 258 254 249 245 251 256 262 265 265 269 282 297 288
342 359 11 13 2 356 1 7 6 354 351 351 355 356 352 347 341 341 344 350 346 330 325 326 320 316 321 322 299 283 270 277 277 261 254 259 257 259 263 263 266 268 272 277
355 350 350 346 343 341 342 339 336 330 333 334 330 333 343 349 350 346 338 336 327 317 317 314 309 314 318 316 301 282 276 280 288 283 260 252 253 256 257 259 264 269 272 272
328 315 317 316 322 327 329 332 332 328 322 313 322 336 342 338 327 322 321 327 333 333 326 313 314 322 323 318 305 289 279 275 276 271 268 264 262 258 260 263 266 269 279 280
346 339 336 337 328 319 316 319 322 322 323 328 332 330 324 318 313 314 321 331 329 321 319 319 327 330 316 307 312 294 291 291 288 282 275 274 279 275 271 271 272 271 274 279
344 342 343 340 338 333 326 324 326 328 329 329 327 328 327 323 318 316 317 310 297 291 301 316 322 316 310 305 311 291 281 282 287 289 288 277 271 274 275 276 277 275 275 275
338 340 340 337 335 333 329 324 325 325 327 330 325 315 312 316 318 316 319 315 314 320 324 324 324 311 308 309 307 293 279 279 283 281 278 274 273 275 276 278 279 278 276 275
332 334 333 333 333 331 329 327 323 322 326 327 325 320 319 321 323 320 304 291 304 321 326 314 311 313 317 315 306 297 291 288 287 283 279 272 269 270 274 277 277 277 276 274
331 333 334 335 331 325 328 335 334 331 327 323 321 320 315 309 311 313 313 314 316 321 323 310 315 318 319 320 308 298 292 287 284 280 276 271 269 270 272 275 276 277 278 277
337 338 335 332 334 340 340 338 337 333 323 316 316 317 318 318 318 311 300 314 325 324 320 317 324 324 326 326 305 294 289 285 283 280 278 277 272 270 271 272 274 275 274 272
335 333 336 339 342 338 331 330 333 333 331 327 324 325 321 309 300 305 308 310 318 323 318 319 324 327 327 308 299 291 288 284 283 283 276 274 271 270 268 268 270 273 273 272
336 336 333 332 329 328 329 330 330 328 329 330 329 325 322 317 307 303 306 309 310 318 321 315 314 317 313 304 298 296 293 294 295 290 280 277 272 271 270 271 270 269 271 271
339 339 339 340 338 336 333 332 329 328 328 322 318 320 323 323 320 318 316 315 315 314 312 311 309 308 307 305 303 299 296 291 287 283 279 276 273 270 269 269 271 271 270 269
Height
1461 1458 1458 1458 1456 1456 1458 1457 1456 1450 1450 1446 1446 1446 1446 1447 1447 1448 1448 1448 1448 1448 1449 1449 1450 1450 1451 1451 1452 1453 1454 1455 1456 1457 1458 1459 1461 1462 1464 1465 1466 1467 1467 1468
1460 1454 1455 1453 1451 1451 1450 1450 1450 1448 1448 1444 1445 1446 1446 1446 1446 1447 1447 1447 1447 1447 1447 1447 1448 1448 1449 1449 1450 1451 1452 1453 1454 1455 1456 1458 1459 1460 1461 1463 1464 1464 1465 1465
1462 1455 1453 1452 1447 1447 1447 1447 1447 1447 1446 1444 1445 1445 1445 1445 1445 1445 1445 1445 1445 1445 1446 1446 1446 1446 1447 1448 1449 1449 1450 1451 1452 1453 1455 1456 1457 1458 1459 1460 1461 1461 1462 1463
1461 1459 1457 1449 1444 1443 1444 1445 1445 1444 1443 1443 1443 1443 1444 1444 1444 1444 1444 1444 1444 1444 1444 1444 1445 1445 1446 1446 1447 1447 1448 1449 1450 1451 1452 1454 1455 1455 1456 1457 1458 1459 1459 1460
1461 1459 1451 1446 1445 1444 1444 1445 1444 1444 1443 1443 1442 1442 1442 1443 1443 1442 1442 1442 1442 1443 1443 1443 1443 1443 1444 1445 1445 1446 1446 1447 1448 1449 1450 1451 1452 1453 1454 1454 1455 1456 1456 1457
1460 1457 1456 1450 1445 1442 1444 1447 1445 1444 1443 1443 1442 1445 1444 1442 1441 1441 1441 1441 1441 1441 1441 1441 1442 1442 1443 1443 1444 1444 1445 1446 1447 1447 1448 1449 1450 1450 1451 1452 1452 1453 1454 1454
1460 1458 1455 1451 1446 1443 1450 1450 1446 1444 1443 1443 1443 1444 1443 1442 1441 1441 1440 1440 1440 1440 1440 1440 1441 1441 1441 1442 1442 1443 1443 1444 1445 1445 1446 1447 1448 1448 1449 1449 1450 1450 1450 1451
1460 1461 1459 1451 1448 1450 1450 1446 1445 1444 1443 1442 1442 1442 1441 1441 1440 1440 1439 1439 1439 1438 1438 1439 1439 1440 1440 1440 1441 1441 1442 1442 1442 1443 1444 1444 1445 1446 1446 1447 1447 1447 1447 1447
1459 1459 1454 1451 1450 1449 1447 1446 1445 1444 1443 1442 1442 1441 1441 1440 1440 1440 1439 1439 1438 1438 1438 1438 1439 1439 1439 1439 1440 1440 1440 1440 1441 1441 1442 1442 1442 1443 1443 1444 1444 1444 1444 1444
1458 1455 1453 1452 1450 1449 1447 1446 1445 1444 1443 1442 1441 1441 1441 1440 1440 1439 1439 1438 1438 1437 1437 1437 1437 1437 1438 1438 1438 1438 1438 1438 1439 1439 1439 1440 1440 1440 1440 1440 1441 1440 1440 1440
1458 1456 1454 1452 1451 1449 1448 1447 1445 1444 1443 1442 1441 1441 1440 1440 1439 1438 1438 1438 1437 1436 1436 1436 1436 1436 1437 1437 1437 1436 1436 1437 1437 1437 1437 1437 1437 1438 1438 1438 1438 1438 1437 1438
1458 1457 1455 1453 1451 1450 1448 1446 1445 1443 1442 1442 1441 1440 1439 1439 1438 1438 1437 1437 1436 1436 1435 1435 1435 1435 1435 1435 1435 1435 1435 1435 1435 1435 1435 1435 1435 1435 1435 1435 1435 1435 1435 1435
1458 1456 1455 1453 1451 1450 1448 1446 1445 1443 1442 1441 1440 1439 1438 1438 1437 1437 1436 1436 1435 1435 1434 1434 1434 1434 1434 1433 1433 1433 1433 1433 1433 1432 1432 1432 1432 1432 1432 1432 1432 1432 1432 1432
1457 1456 1454 1452 1451 1449 1447 1445 1444 1442 1442 1441 1440 1439 1438 1437 1436 1436 1435 1435 1434 1434 1433 1433 1432 1432 1432 1431 1431 1431 1431 1430 1430 1430 1430 1430 1430 1429 1429 1429 1428 1428 1428 1428
1457 1456 1454 1452 1451 1449 1447 1445 1443 1442 1441 1440 1439 1438 1437 1436 1435 1435 1434 1434 1433 1432 1431 1431 1430 1430 1430 1429 1429 1428 1428 1428 1428 1428 1427 1427 1427 1427 1426 1426 1425 1424 1424 1424
1457 1455 1453 1452 1450 1449 1447 1445 1443 1442 1441 1439 1438 1437 1437 1436 1435 1434 1433 1432 1431 1430 1429 1429 1428 1428 1427 1427 1426 1426 1425 1425 1425 1425 1424 1424 1424 1423 1423 1422 1422 1421 1421 1421
1456 1454 1452 1450 1449 1448 1447 1445 1444 1442 1441 1439 1438 1437 1436 1435 1433 1432 1431 1430 1429 1428 1427 1427 1426 1425 1424 1424 1423 1423 1422 1422 1422 1421 1421 1421 1420 1420 1420 1419 1419 1418 1418 1418
1456 1454 1452 1450 1448 1447 1445 1444 1443 1441 1440 1438 1437 1436 1434 1433 1432 1430 1429 1428 1427 1425 1425 1424 1423 1422 1421 1421 1420 1420 1419 1419 1418 1418 1418 1417 1417 1417 1416 1416 1415 1415 1414 1414
1454 1452 1451 1449 1447 1445 1444 1442 1441 1439 1438 1436 1435 1433 1432 1431 1430 1428 1427 1425 1424 1422 1422 1421 1420 1419 1419 1418 1417 1417 1416 1416 1415 1415 1414 1414 1414 1413 1413 1412 1412 1411 1411 1410
1453 1451 1449 1447 1445 1443 1442 1440 1439 1437 1436 1434 1433 1431 1430 1429 1428 1426 1424 1423 1422 1421 1420 1419 1418 1417 1416 1415 1414 1414 1413 1413 1412 1412 1411 1411 1410 1410 1410 1409 1409 1408 1407 1407
1451 1449 1447 1445 1443 1441 1440 1438 1437 1435 1434 1432 1431 1429 1428 1427 1425 1424 1422 1421 1420 1419 1418 1416 1415 1414 1413 1412 1411 1411 1410 1410 1409 1409 1408 1408 1407 1407 1406 1406 1405 1405 1404 1404
1449 1447 1445 1443 1441 1439 1438 1436 1435 1433 1432 1430 1429 1427 1426 1424 1423 1422 1420 1419 1418 1416 1415 1413 1412 1411 1410 1409 1409 1408 1407 1406 1406 1405 1405 1404 1404 1403 1403 1402 1402 1401 1401 1400
1448 1445 1443 1441 1439 1437 1436 1434 1433 1431 1430 1428 1427 1425 1424 1422 1421 1419 1418 1417 1415 1414 1412 1411 1409 1408 1408 1407 1406 1405 1404 1403 1403 1402 1401 1401 1400 1400 1399 1399 1398 1397 1397 1396
1446 1444 1442 1440 1438 1436 1434 1432 1431 1429 1428 1426 1425 1423 1421 1420 1418 1417 1416 1414 1413 1411 1410 1408 1407 1406 1405 1404 1403 1402 1401 1400 1399 1399 1398 1397 1397 1396 1396 1395 1394 1394 1393 1392
1445 1442 1440 1438 1436 1434 1432 1430 1428 1427 1425 1424 1422 1421 1419 1418 1416 1414 1413 1411 1410 1408 1407 1405 1404 1403 1402 1401 1400 1399 1398 1397 1396 1395 1394 1394 1393 1393 1392 1391 1391 1390 1389 1388
1443 1441 1439 1437 1435 1432 1430 1428 1426 1425 1423 1421 1419 1418 1416 1415 1413 1412 1410 1408 1407 1405 1404 1402 1401 1400 1399 1398 1396 1395 1394 1394 1393 1392 1391 1390 1390 1389 1388 1388 1387 1386 1385 1385
1442 1440 1437 1435 1433 1431 1429 1427 1425 1423 1421 1419 1417 1415 1414 1412 1411 1409 1407 1405 1404 1402 1401 1400 1398 1397 1395 1394 1393 1392 1391 1390 1389 1388 1387 1387 1386 1385 1385 1384 1383 1383 1382 1381